Regional Weather Roundup
Issued by NWS

Home | Current Version | Previous Version | Text Only | Print | Product List | Glossary Off
Versions: 1 2 3 4 5 6 7 8 9 10 11 12 13 14 15 16 17 18 19 20 21 22 23 24 25 26 27 28 29 30 31 32 33 34 35 36 37 38 39 40 41 42 43 44 45 46 47 48 49 50

000
ASUS43 KIND 171559
RWRIN

WEATHER ROUNDUP FOR INDIANA
NATIONAL WEATHER SERVICE INDIANAPOLIS IN
1100 AM EST TUE JAN 17 2017

NOTE: "FAIR" INDICATES FEW OR NO CLOUDS BELOW 12,000 FEET WITH NO
SIGNIFICANT WEATHER AND/OR OBSTRUCTIONS TO VISIBILITY.

* - STATION DOES NOT REPORT WEATHER SUCH AS PRECIPITATION OR FOG.

+ - STATION NOT QUALITY CONTROLLED BY THE NATIONAL WEATHER SERVICE.
    USE DATA WITH CAUTION...ESPECIALLY DEWPOINT AND RELATIVE
    HUMIDITY OBSERVATIONS.

INZ001>003-010>013-019-020-171700-
NORTHWEST INDIANA

CITY           SKY/WX    TMP DP  RH WIND       PRES   REMARKS
GARY /AIRPORT/ CLOUDY    41  39  93 W8G20     29.87R
KNOX *+        CLOUDY    41  34  75 W13       29.85S
MONTICELLO +   CLOUDY    44  42  93 W12       29.89R

$$

LMZ046-743>745-171700-
SOUTHERN LAKE MICHIGAN

STATION/POSITION TIME  TEMP    WIND        PRES    WAVE
                       AIR SEA DIR/SP/G            HT
                 (UTC) (F)     (DEG/KT/KT) (MB)    (FT)
BURNS HARBOR     1540   38     250/ 10/ 11 1011.9R

$$

INZ004-005-014>016-021>024-171700-
NORTH CENTRAL INDIANA

CITY           SKY/WX    TMP DP  RH WIND       PRES   REMARKS
ELKHART        FOG       41  39  93 W13G20    29.82R VSB 3/4
GOSHEN         CLOUDY    43  40  89 W14G22    29.83R
SOUTH BEND     FOG       40  40 100 W10       29.84R VSB 3/4

$$

INZ006>009-017-018-025>027-171700-
NORTHEAST INDIANA

CITY           SKY/WX    TMP DP  RH WIND       PRES   REMARKS
ANGOLA *+      CLOUDY    46  37  71 SW13      29.79R
FORT WAYNE     CLOUDY    48  45  89 W15       29.85R
KENDALLVILLE + DRIZZLE   45  45 100 W17       29.81R

$$

INZ028-029-035-036-043>045-051>053-171700-
WEST CENTRAL INDIANA

CITY           SKY/WX    TMP DP  RH WIND       PRES   REMARKS
CRAWFORDSVL +  CLOUDY    43  43 100 W12       29.93R
LAFAYETTE      CLOUDY    45  43  93 SW9       29.91R
TERRE HAUTE    CLOUDY    47  39  74 W12       29.96R

$$

INZ030>032-037>040-046>048-054>057-064-065-171700-
CENTRAL INDIANA

CITY           SKY/WX    TMP DP  RH WIND       PRES   REMARKS
COLUMBUS       CLOUDY    52  52 100 W8        29.94R
INDIANAPOLIS   CLOUDY    48  44  86 W15       29.93R
-EAGLE CREEK   CLOUDY    47  42  83 W9G18     29.92R
KOKOMO +       CLOUDY    47  44  90 W16       29.90R
MT COMFORT *+  CLOUDY    50  46  87 W8G18     29.91R
SHELBYVILLE    CLOUDY    53  48  83 SW13      29.91R

$$

INZ033-034-041-042-049-050-058-059-171700-
EAST CENTRAL INDIANA

CITY           SKY/WX    TMP DP  RH WIND       PRES   REMARKS
MUNCIE         CLOUDY    52  48  86 W14       29.88R

$$

INZ060-061-067>069-081>083-085>088-171700-
SOUTHWEST INDIANA

CITY           SKY/WX    TMP DP  RH WIND       PRES   REMARKS
EVANSVILLE     CLOUDY    51  44  77 W8        30.02R
HUNTINGBURG *+ CLOUDY    51  46  83 W12       30.00R

$$

INZ062-063-066-070>080-084-089>092-171700-
SOUTH CENTRAL AND SOUTHEAST INDIANA

CITY           SKY/WX    TMP DP  RH WIND       PRES   REMARKS
BLOOMINGTON    CLOUDY    51  44  77 W15G21    29.94R
MADISON *+     PTSUNNY   55  50  82 W12       29.96R

$$





USA.gov is the U.S. government's official web portal to all federal, state and local government web resources and services.